This is the latest recevied weather packets stored in our database for station/object W7PLC. If no packets are shown the sender has not sent any weather packets the latest 10 day(s).
| Time | Temp. | Humidity | Pressure | Rain* | Wind** | Luminosity | Snow |
|---|---|---|---|---|---|---|---|
| 1777745941 | 17.78° C | 70% | 1014.8 hPa | 0 mm | - | 574 W/m² | - |
| 1777745639 | 18.33° C | 69% | 1014.9 hPa | 0 mm | - | 567 W/m² | - |
| 1777745337 | 17.78° C | 72% | 1015.2 hPa | 0 mm | - | 579 W/m² | - |
| 1777745034 | 17.22° C | 72% | 1015.2 hPa | 0 mm | - | 553 W/m² | - |
| 1777744730 | 17.22° C | 73% | 1015 hPa | 0 mm | - | 537 W/m² | - |
| 1777744424 | 17.22° C | 73% | 1015.1 hPa | 0 mm | - | 492 W/m² | - |
| 1777744122 | 16.67° C | 74% | 1015.2 hPa | 0 mm | - | 484 W/m² | - |
| 1777743818 | 16.67° C | 75% | 1015.1 hPa | 0 mm | - | 461 W/m² | - |
| 1777743515 | 16.67° C | 74% | 1015.4 hPa | 0 mm | - | 486 W/m² | - |
| 1777743212 | 16.67° C | 73% | 1015.4 hPa | 0 mm | - | 484 W/m² | - |
| 1777742910 | 17.22° C | 74% | 1015.7 hPa | 0 mm | - | 514 W/m² | - |
| 1777742607 | 16.67° C | 75% | 1015.2 hPa | 0 mm | - | 521 W/m² | - |
| 1777742302 | 16.11° C | 76% | 1015.4 hPa | 0 mm | - | 493 W/m² | - |
| 1777741999 | 15.56° C | 79% | 1015.3 hPa | 0 mm | - | 336 W/m² | - |
| 1777741696 | 15° C | 81% | 1015.5 hPa | 0 mm | - | 502 W/m² | - |
| 1777741393 | 15° C | 80% | 1015.3 hPa | 0 mm | - | 474 W/m² | - |
| 1777741089 | 14.44° C | 83% | 1015.5 hPa | 0 mm | - | 467 W/m² | - |
| 1777740786 | 13.89° C | 83% | 1015.5 hPa | 0 mm | - | 399 W/m² | - |
| 1777740483 | 13.33° C | 86% | 1015.3 hPa | 0 mm | - | 285 W/m² | - |
| 1777740180 | 12.78° C | 88% | 1015.2 hPa | 0 mm | - | 226 W/m² | - |
| 1777739876 | 12.22° C | 89% | 1015.4 hPa | 0 mm | - | 162 W/m² | - |
| 1777739573 | 12.22° C | 90% | 1015.3 hPa | 0 mm | - | 110 W/m² | - |
| 1777739270 | 12.22° C | 89% | 1015.4 hPa | 0 mm | - | 122 W/m² | - |
| 1777738966 | 12.22° C | 90% | 1015.4 hPa | 0 mm | - | 119 W/m² | - |
| 1777738664 | 11.67° C | 92% | 1015.5 hPa | 0 mm | - | 90 W/m² | - |
* Rain latest hour (hover to see other rain measurements)
** Current wind speed in m/s (hover to see current wind gust speed)